Wind_Speed
6 5 5 4 4 3 3 2 2 2 3 2 2 1 0 1 1 2 3 4 5 5 6 7 7 7 8 8 9 9 10 11 12 13 14 14 15 15 15 15 16 16 16 16 16 16 16 16 16
6 5 5 4 4 4 3 1 1 1 2 1 1 0 1 2 3 3 5 5 6 6 7 8 8 9 9 9 10 11 12 13 13 14 14 14 14 14 14 15 15 16 16 16 16 16 16 16 17
6 6 6 5 5 5 3 2 2 1 1 1 1 2 4 5 4 5 6 7 8 8 9 9 10 10 10 11 11 12 13 13 13 13 13 13 13 14 14 14 15 15 15 16 16 16 16 16 16
5 6 6 6 7 6 6 5 4 3 3 3 3 4 6 7 6 7 8 9 10 10 10 10 11 11 11 11 12 12 13 13 13 13 13 13 13 13 14 14 14 14 15 15 15 15 15 16 16
5 6 7 7 8 8 7 6 6 6 6 6 6 6 8 9 8 8 9 11 11 12 11 11 11 11 11 12 12 12 12 12 13 13 13 13 13 13 13 13 13 14 14 14 15 15 16 16 17
6 7 8 9 9 9 8 7 7 7 8 8 8 9 10 12 11 9 10 11 12 13 12 12 12 12 12 12 12 12 12 12 12 13 13 13 13 13 13 13 13 14 14 15 15 16 16 17 18
7 8 9 9 10 10 9 9 9 9 9 9 10 10 12 14 12 11 11 12 13 13 13 13 12 13 13 13 12 12 12 12 12 13 13 13 13 13 14 14 14 14 15 15 16 16 17 18 18
9 9 10 9 10 11 10 10 11 11 11 11 10 10 12 14 13 12 11 12 13 14 14 13 13 13 13 13 13 13 13 13 13 13 14 14 14 14 14 14 14 15 15 16 16 17 18 19 19
10 11 11 11 11 11 12 11 12 12 13 12 9 10 12 14 14 13 12 12 13 14 14 14 14 14 14 14 14 14 14 14 14 14 15 15 15 15 15 15 15 16 16 17 18 18 19 20 21
13 13 13 13 12 13 13 13 12 13 15 14 10 11 13 14 15 14 14 13 14 15 15 15 15 15 15 15 15 15 15 16 16 16 16 16 16 16 17 17 17 18 18 19 20 21 21 22 23
15 15 15 15 15 14 15 15 15 14 15 15 13 13 14 15 16 15 15 15 15 16 17 17 17 17 17 17 17 17 17 18 18 18 18 18 19 19 19 20 20 21 22 22 23 24 25 26 27
17 18 17 17 17 16 16 17 17 18 17 16 15 14 15 17 17 17 17 17 17 17 19 19 18 18 19 19 19 20 20 20 20 20 21 21 22 22 23 23 24 25 26 26 27 28 29 29 30
20 20 20 19 19 18 18 18 19 20 18 17 16 16 16 18 19 19 19 19 19 19 20 21 21 21 21 22 22 22 23 23 23 24 24 25 25 26 27 27 28 29 29 30 31 32 32 33 34
21 21 21 20 19 19 19 21 21 19 18 18 18 18 18 18 20 21 21 22 22 22 22 22 23 24 24 24 25 25 26 26 27 27 28 28 29 30 31 31 32 33 33 34 35 35 36 37 38
21 21 21 20 20 19 20 22 22 19 18 18 19 19 19 19 20 21 22 23 23 23 24 24 25 25 26 27 28 28 29 29 30 31 31 32 33 33 34 35 36 37 37 38 39 39 40 41 42
20 20 20 20 19 19 19 21 24 20 18 18 19 19 19 19 20 21 22 23 23 24 25 26 26 27 28 29 30 31 32 32 33 34 35 36 37 37 38 38 39 40 41 42 43 44 44 45 46
19 18 18 19 18 18 19 19 22 20 19 19 19 19 18 19 20 21 22 23 23 24 25 26 27 28 29 30 32 33 34 35 36 37 38 39 40 41 42 42 43 44 45 46 47 47 48 49 50
16 16 17 18 17 17 18 17 18 19 18 18 18 18 18 18 19 20 21 22 23 24 24 26 28 29 30 31 32 34 35 36 38 39 40 41 43 44 45 45 46 48 48 49 50 51 52 53 54
15 15 16 17 16 16 17 17 17 18 18 18 18 18 18 18 18 19 20 22 23 24 25 26 27 29 31 32 33 34 35 37 38 40 41 43 45 46 48 48 49 51 52 53 54 55 55 56 58
14 14 15 15 17 16 17 17 16 16 17 17 18 18 18 18 18 19 20 21 22 24 25 26 27 29 31 33 34 35 36 37 39 40 42 45 47 48 50 51 52 53 54 55 56 58 59 59 61
15 14 14 13 15 17 18 18 16 16 17 17 18 18 19 19 19 20 20 22 23 24 25 27 28 30 32 34 35 36 37 38 40 42 45 47 48 50 51 53 54 56 57 58 59 60 61 62 63
15 15 14 13 14 16 18 20 18 17 17 18 18 18 19 19 20 21 22 23 25 26 27 29 30 31 33 35 36 38 39 40 42 45 46 48 50 51 53 55 56 58 59 60 61 63 63 65 65
15 16 15 15 15 16 18 20 21 19 18 18 18 19 20 21 22 23 25 26 27 28 29 30 31 33 34 36 38 40 41 43 45 47 48 50 52 54 55 56 58 59 60 61 63 64 66 67 67
16 17 17 17 16 16 17 18 21 21 21 21 20 20 21 22 23 25 26 28 29 30 31 31 33 34 35 37 39 41 42 44 46 47 49 51 53 55 56 58 60 61 62 63 65 66 67 67 67
18 18 19 18 17 17 18 19 21 23 23 23 23 23 23 23 24 25 27 28 29 30 31 32 33 34 35 36 38 40 41 43 45 47 49 51 53 55 57 59 60 61 63 64 65 66 66 67 67
19 20 20 21 20 18 19 20 22 24 25 25 25 24 24 24 24 25 26 28 29 30 31 32 33 34 35 37 38 40 41 43 45 47 49 51 52 54 56 58 60 61 63 64 65 65 65 66 66
21 21 22 23 23 22 20 20 23 25 25 25 25 24 24 24 25 26 27 28 29 31 32 34 35 36 38 39 40 42 43 45 47 49 50 52 54 55 57 59 60 62 63 65 65 65 65 65 66
23 23 24 25 26 25 22 20 23 25 25 25 25 24 25 26 27 29 30 31 32 33 35 36 37 38 40 41 43 45 47 49 50 52 54 55 57 59 60 61 62 63 64 64 65 65 65 66 66
24 25 25 26 27 28 26 20 23 24 25 25 26 26 28 29 30 31 32 33 34 36 38 39 41 43 44 46 48 50 52 53 55 56 58 59 60 61 62 63 64 64 65 65 66 65 66 66 66
26 25 26 27 28 27 26 20 22 24 26 27 28 29 30 32 33 33 35 36 38 40 42 44 46 48 50 52 54 55 57 59 60 61 62 63 64 64 65 65 66 66 66 66 67 67 67 66 66
Wind_Direction
54 48 45 40 34 46 52 60 75 89 88 87 89 94 120 239 241 250 245 246 241 240 244 247 250 252 255 259 263 267 271 274 276 277 278 278 279 278 278 278 278 278 278 276 275 273 272 270 268
48 38 29 22 14 24 28 22 29 60 61 58 59 0 269 262 260 260 259 259 257 255 256 258 259 260 261 263 267 271 274 277 278 278 279 280 280 280 280 279 279 279 279 279 278 276 275 274 272
39 27 14 4 2 4 352 321 324 352 3 345 313 290 276 273 271 266 266 267 266 264 263 264 265 265 266 268 271 274 276 278 278 278 279 279 280 280 281 281 281 281 281 281 280 279 278 277 275
19 10 2 352 347 344 335 321 317 325 326 318 304 293 284 279 274 270 271 270 269 268 266 266 267 268 269 270 273 275 277 278 278 277 278 278 279 280 281 282 282 282 283 283 282 281 280 279 278
360 353 349 343 339 335 331 322 316 315 312 307 298 291 287 283 276 268 268 270 270 269 268 267 268 269 270 272 274 275 277 277 277 276 277 278 279 280 281 282 283 284 284 284 284 284 283 283 282
336 336 336 334 333 330 329 320 315 311 306 300 293 287 282 280 278 272 266 267 269 269 269 268 268 269 271 272 273 275 276 275 275 275 275 277 278 278 279 281 282 283 284 285 285 286 286 286 286
322 324 325 328 326 323 323 318 314 310 306 298 289 282 275 276 277 272 267 266 267 269 269 268 268 269 271 271 272 273 273 273 274 274 274 275 276 277 278 280 282 283 284 286 287 288 288 288 288
312 316 318 321 320 316 318 318 314 310 306 302 294 283 273 276 279 275 268 264 265 267 268 267 267 268 269 270 270 270 270 270 271 272 272 273 274 276 278 280 282 284 286 288 289 290 290 291 291
301 307 311 313 313 312 314 314 311 308 305 304 301 288 278 278 279 277 271 266 264 265 267 266 265 266 267 267 267 268 268 269 270 271 272 273 274 276 278 280 282 284 287 288 290 291 291 292 293
292 297 302 306 307 307 308 308 306 303 301 307 308 293 286 282 281 279 275 268 265 265 266 266 265 264 265 265 265 265 266 267 268 270 272 274 276 277 279 280 282 284 286 288 290 290 291 292 292
287 292 296 299 301 301 301 302 303 301 300 307 305 297 292 287 285 281 277 272 267 265 264 264 264 264 264 264 264 265 266 267 268 269 271 273 275 277 279 281 283 285 286 287 288 289 290 291 291
280 285 291 294 296 297 297 298 300 300 303 304 301 297 291 288 287 285 281 275 270 266 265 266 266 266 265 265 265 265 266 267 268 269 270 272 274 276 278 280 281 283 284 285 287 288 288 289 290
278 282 286 288 290 293 294 294 294 298 304 304 299 293 287 284 285 285 282 277 273 269 267 267 268 267 266 266 265 265 266 267 269 270 270 272 273 275 277 278 279 281 282 283 285 286 287 288 288
278 280 282 285 289 291 292 291 292 298 303 303 298 292 286 283 282 282 281 279 276 272 268 266 266 265 266 266 266 266 267 268 269 270 271 272 273 274 276 277 278 279 281 282 283 284 285 286 287
277 279 281 283 286 287 290 290 295 300 301 299 296 294 291 286 283 281 280 279 277 274 270 267 265 265 265 266 266 267 268 268 269 270 271 272 272 273 274 275 276 278 279 281 282 283 283 284 285
277 279 281 283 285 288 288 287 295 299 298 296 294 293 292 289 285 282 281 279 277 276 274 271 269 266 265 266 267 268 269 269 270 270 271 272 273 274 274 275 276 277 279 280 281 282 282 283 284
278 279 280 282 284 283 282 282 291 297 298 296 295 294 292 290 287 283 282 280 278 276 275 274 272 270 268 268 268 268 268 269 269 271 272 273 274 275 275 276 276 277 278 279 281 281 282 283 284
279 279 279 280 282 282 282 285 290 295 296 295 295 296 295 292 288 286 284 282 280 278 276 275 274 273 273 272 271 270 270 270 271 272 273 274 274 275 275 276 277 278 279 279 280 281 282 282 283
280 280 279 282 286 287 289 291 293 295 296 297 298 299 298 294 291 288 286 284 283 281 279 278 277 276 276 275 274 273 273 273 274 273 274 274 274 275 276 277 278 279 279 279 280 281 282 282 283
277 277 280 286 291 293 293 295 297 297 299 300 301 300 300 298 295 293 290 287 285 284 282 279 278 277 277 276 276 276 275 275 275 275 275 275 276 277 278 279 279 280 280 281 281 281 282 282 283
279 280 283 287 292 294 295 296 298 299 299 299 300 300 300 299 298 296 294 291 289 287 285 283 281 279 278 278 277 277 277 277 277 276 276 278 279 280 280 280 281 281 281 281 282 282 283 283 284
280 284 287 289 289 291 296 298 299 300 298 298 299 300 300 299 299 298 296 294 291 289 287 286 284 282 281 280 280 279 279 279 278 278 279 279 280 280 280 281 281 281 282 282 282 283 283 283 284
281 285 288 290 291 293 296 298 300 301 298 298 300 301 301 300 299 298 297 295 293 291 289 288 287 286 285 284 284 283 283 282 282 282 281 281 281 281 281 281 281 282 282 282 282 282 283 283 284
282 285 288 290 293 295 295 296 296 298 299 301 302 303 301 300 299 298 297 296 295 294 293 291 290 289 289 288 287 287 286 285 285 284 284 283 282 282 282 281 281 281 281 282 282 282 282 283 283
282 286 289 292 294 296 296 295 295 298 301 302 303 302 301 301 300 299 298 297 297 297 296 295 295 294 293 292 291 290 289 288 287 286 285 285 284 283 283 282 282 282 281 281 281 281 282 282 282
281 285 289 293 296 296 297 298 297 298 299 300 301 302 303 303 301 299 298 299 299 299 298 298 297 296 295 295 294 293 292 291 290 289 288 287 286 285 284 284 284 283 282 282 281 281 281 281 281
281 284 289 292 294 295 295 297 294 295 297 299 301 304 305 304 303 302 303 303 302 301 300 300 300 299 298 298 297 296 295 294 293 291 290 289 287 286 285 285 284 284 283 282 281 281 280 280 280
282 286 290 292 294 296 297 299 295 296 298 301 304 306 306 305 304 304 305 304 303 303 302 302 301 300 299 298 298 297 296 295 294 293 291 290 289 287 287 286 285 284 283 282 281 281 280 280 280
282 286 289 290 292 294 297 302 297 297 299 301 304 305 304 304 304 304 305 304 303 303 302 302 302 301 300 300 299 298 297 295 294 293 292 291 290 288 287 286 286 285 283 282 281 281 280 280 280
281 285 287 288 290 292 295 301 296 295 297 299 302 302 302 303 304 304 303 303 302 302 302 302 302 302 301 300 299 298 297 296 295 294 293 292 290 289 288 287 286 284 283 282 282 281 280 280 280
Height
5875 5874 5874 5874 5874 5873 5872 5872 5871 5869 5869 5869 5869 5869 5869 5870 5870 5872 5870 5869 5869 5869 5869 5869 5869 5869 5869 5869 5869 5869 5869 5869 5869 5868 5868 5868 5867 5867 5867 5866 5865 5865 5865 5864 5864 5864 5864 5864 5864
5875 5875 5875 5875 5874 5873 5873 5871 5870 5869 5869 5868 5868 5868 5868 5869 5869 5869 5868 5868 5868 5868 5868 5868 5868 5868 5867 5867 5867 5867 5867 5867 5866 5866 5865 5865 5864 5864 5864 5863 5862 5862 5862 5861 5861 5861 5860 5860 5860
5875 5875 5876 5875 5873 5873 5873 5871 5870 5869 5868 5868 5867 5867 5867 5868 5868 5867 5867 5867 5866 5866 5866 5866 5866 5866 5865 5865 5865 5865 5864 5864 5864 5863 5863 5862 5862 5861 5861 5860 5860 5859 5859 5858 5858 5857 5857 5857 5857
5876 5876 5876 5875 5873 5873 5872 5871 5869 5868 5867 5867 5866 5866 5866 5866 5866 5866 5865 5865 5864 5864 5864 5864 5864 5863 5863 5863 5863 5862 5862 5861 5861 5861 5860 5860 5859 5859 5858 5858 5857 5856 5856 5855 5854 5854 5854 5853 5853
5876 5875 5875 5873 5872 5872 5871 5870 5868 5867 5866 5865 5865 5865 5864 5863 5864 5864 5863 5862 5862 5862 5861 5861 5861 5861 5860 5860 5860 5859 5859 5859 5858 5858 5858 5857 5857 5856 5855 5855 5854 5854 5853 5852 5852 5851 5850 5850 5849
5876 5875 5874 5872 5871 5870 5869 5868 5867 5865 5864 5863 5863 5863 5862 5861 5861 5861 5861 5860 5859 5859 5858 5858 5858 5858 5858 5857 5857 5857 5856 5856 5856 5855 5855 5854 5854 5853 5853 5852 5851 5851 5850 5849 5848 5848 5847 5846 5845
5875 5874 5872 5871 5870 5869 5868 5866 5864 5863 5862 5861 5860 5860 5859 5858 5858 5858 5858 5858 5856 5856 5855 5855 5855 5855 5855 5854 5854 5854 5853 5853 5853 5852 5852 5851 5851 5850 5849 5849 5848 5847 5847 5846 5845 5844 5843 5842 5842
5873 5873 5871 5870 5869 5867 5866 5864 5862 5861 5860 5859 5858 5857 5856 5855 5854 5855 5855 5855 5854 5853 5852 5852 5852 5852 5851 5851 5851 5850 5850 5850 5849 5849 5849 5848 5847 5847 5846 5845 5845 5844 5843 5842 5841 5840 5839 5838 5837
5871 5872 5869 5868 5867 5865 5863 5862 5860 5859 5857 5856 5855 5854 5853 5852 5851 5851 5851 5851 5850 5849 5849 5848 5848 5848 5848 5847 5847 5847 5847 5846 5846 5846 5845 5845 5844 5843 5843 5842 5841 5840 5839 5838 5837 5836 5835 5834 5832
5869 5868 5867 5866 5864 5863 5861 5859 5858 5857 5855 5853 5853 5851 5850 5848 5847 5847 5847 5847 5847 5846 5845 5845 5844 5844 5844 5844 5843 5843 5843 5843 5842 5842 5841 5841 5840 5839 5838 5837 5837 5836 5834 5833 5832 5831 5830 5828 5827
5866 5865 5864 5862 5861 5860 5858 5856 5855 5854 5852 5851 5850 5848 5847 5845 5844 5843 5843 5843 5843 5842 5841 5841 5840 5840 5840 5840 5839 5839 5839 5838 5838 5837 5837 5836 5835 5835 5834 5833 5832 5831 5829 5828 5827 5826 5824 5823 5821
5863 5862 5860 5859 5858 5857 5855 5853 5851 5850 5849 5848 5846 5845 5843 5841 5840 5839 5839 5839 5839 5838 5837 5837 5836 5836 5836 5835 5835 5835 5834 5834 5833 5833 5832 5831 5830 5829 5829 5828 5826 5825 5824 5822 5821 5819 5818 5816 5815
5859 5858 5857 5856 5854 5853 5851 5849 5848 5846 5845 5844 5842 5841 5839 5838 5836 5835 5835 5834 5834 5833 5833 5832 5832 5831 5831 5831 5830 5830 5829 5829 5828 5827 5827 5826 5825 5824 5823 5821 5820 5819 5817 5816 5814 5812 5811 5809 5807
5855 5854 5853 5851 5850 5849 5847 5845 5843 5843 5842 5840 5837 5836 5835 5834 5832 5831 5830 5829 5828 5828 5828 5828 5827 5826 5825 5825 5824 5824 5823 5823 5822 5821 5820 5820 5818 5817 5816 5814 5813 5811 5810 5808 5807 5805 5803 5801 5799
5850 5850 5848 5847 5846 5844 5843 5840 5839 5839 5837 5835 5833 5831 5830 5829 5827 5826 5825 5824 5823 5822 5822 5822 5821 5821 5820 5819 5818 5818 5817 5816 5815 5814 5813 5813 5811 5810 5809 5807 5805 5803 5802 5800 5799 5796 5794 5792 5790
5845 5845 5844 5842 5841 5840 5840 5837 5834 5834 5833 5831 5829 5827 5825 5824 5822 5820 5819 5818 5817 5816 5815 5815 5815 5815 5814 5813 5812 5811 5810 5809 5808 5807 5806 5804 5803 5802 5800 5799 5797 5795 5793 5791 5789 5787 5785 5782 5780
5841 5840 5838 5837 5837 5836 5834 5833 5830 5829 5828 5826 5824 5823 5821 5819 5817 5815 5814 5813 5812 5810 5809 5808 5808 5807 5807 5806 5806 5805 5804 5803 5801 5799 5798 5796 5794 5793 5791 5790 5788 5785 5784 5781 5779 5777 5774 5772 5769
5836 5835 5834 5832 5832 5831 5829 5829 5827 5825 5823 5821 5819 5818 5816 5815 5813 5810 5809 5807 5806 5805 5803 5802 5801 5800 5799 5799 5798 5797 5796 5795 5793 5792 5790 5788 5786 5783 5781 5780 5778 5775 5773 5771 5768 5766 5763 5760 5757
5832 5831 5830 5828 5827 5826 5824 5824 5823 5820 5818 5816 5814 5813 5811 5810 5808 5806 5804 5802 5800 5799 5797 5796 5794 5793 5791 5790 5790 5789 5788 5786 5785 5783 5781 5778 5776 5773 5771 5769 5767 5764 5762 5759 5757 5754 5751 5748 5744
5828 5827 5826 5824 5822 5821 5820 5819 5818 5816 5813 5812 5810 5808 5806 5804 5802 5800 5798 5796 5794 5793 5791 5789 5788 5786 5784 5782 5781 5780 5778 5777 5775 5773 5771 5768 5765 5763 5760 5758 5756 5752 5750 5747 5744 5741 5738 5735 5730
5823 5823 5821 5820 5818 5816 5815 5814 5813 5811 5809 5807 5806 5804 5801 5799 5797 5795 5792 5790 5788 5786 5785 5783 5781 5779 5777 5774 5773 5771 5769 5767 5765 5762 5760 5757 5755 5752 5749 5746 5743 5740 5737 5734 5730 5727 5723 5720 5717
5819 5818 5817 5816 5815 5813 5812 5809 5808 5807 5805 5803 5801 5799 5796 5793 5791 5789 5786 5784 5782 5779 5777 5775 5773 5771 5768 5766 5764 5762 5759 5757 5755 5752 5749 5746 5743 5740 5737 5733 5730 5726 5723 5720 5716 5712 5708 5704 5701
5814 5813 5813 5812 5810 5809 5807 5804 5803 5801 5799 5798 5796 5793 5791 5788 5785 5782 5779 5777 5774 5772 5769 5767 5764 5762 5760 5757 5755 5752 5749 5747 5744 5741 5738 5734 5731 5727 5724 5720 5716 5712 5709 5705 5701 5697 5693 5689 5685
5810 5809 5808 5807 5806 5805 5802 5800 5798 5795 5793 5791 5789 5787 5784 5781 5778 5775 5772 5769 5767 5764 5761 5758 5756 5753 5750 5748 5745 5742 5739 5735 5732 5729 5725 5721 5718 5714 5710 5705 5701 5697 5694 5690 5685 5681 5677 5673 5669
5806 5805 5803 5802 5801 5800 5797 5795 5793 5789 5787 5785 5783 5780 5778 5775 5772 5769 5765 5762 5759 5756 5753 5750 5747 5744 5741 5737 5734 5731 5727 5724 5720 5716 5712 5708 5704 5700 5695 5690 5686 5682 5678 5673 5669 5664 5660 5656 5652
5800 5800 5799 5797 5795 5794 5792 5789 5787 5783 5780 5778 5776 5774 5771 5768 5765 5762 5758 5755 5751 5748 5745 5742 5738 5735 5731 5727 5724 5720 5716 5712 5708 5703 5699 5694 5690 5685 5680 5675 5670 5666 5661 5656 5651 5647 5643 5639 5635
5795 5794 5792 5790 5788 5787 5786 5784 5781 5777 5774 5772 5769 5767 5764 5761 5757 5754 5751 5747 5744 5740 5737 5733 5729 5725 5722 5718 5713 5709 5704 5700 5695 5690 5685 5680 5675 5670 5664 5659 5654 5649 5644 5639 5633 5629 5626 5621 5617
5789 5787 5786 5783 5781 5779 5780 5778 5774 5770 5767 5765 5762 5759 5756 5753 5750 5747 5743 5739 5735 5731 5728 5724 5720 5716 5712 5707 5702 5697 5692 5687 5682 5676 5671 5665 5660 5654 5648 5643 5637 5632 5626 5621 5615 5612 5608 5603 5599
5783 5782 5779 5776 5775 5772 5771 5774 5767 5764 5760 5758 5755 5752 5749 5746 5742 5739 5735 5731 5727 5722 5718 5714 5710 5705 5700 5695 5690 5685 5679 5673 5667 5661 5655 5649 5643 5637 5631 5625 5619 5613 5608 5602 5597 5593 5589 5584 5580
5776 5775 5772 5771 5768 5765 5763 5768 5761 5757 5754 5751 5748 5745 5741 5738 5734 5730 5726 5722 5717 5713 5708 5703 5698 5693 5688 5682 5676 5670 5664 5658 5651 5645 5638 5631 5625 5618 5612 5606 5600 5594 5589 5583 5578 5574 5569 5565 5561